Terug naar catalogus

FENGYUN 1C DEB

ActiefPO
NORAD 29890·DEBRIS·🇨🇳 China

Gelanceerd May 10, 1999 vanaf Taiyuan Satellite Launch Center

Loading…

Volgende Passages (komende 24 uur)

TLE

VersSource: Space-Track

Epoch: Sep 14, 2026, 09:09 UTC

1 29890U 99025GL  26257.38161798  .00000682  00000-0  31698-3 0  9994
2 29890  99.4935  45.1793 0013381  27.2481 332.9394 14.24308590 13641

Volg FENGYUN 1C DEB in realtime met AllMySat

Download on the App Store